HELLAS-SAT 3

Last updated on Wed Sep 17 2025 00:02:49 GMT+0000 (Coordinated Universal Time)

1 42814U 17040A 25259.62229448 .00000133 00000+0 00000+0 0 9996 2 42814 0.0679 49.4782 0001288 58.4147 150.9720 1.00274677 30062
UTC large
Height (km)
Speed (km/s)
/
Latitude / Longitude
Inclination (degrees)
Orbital Period (minutes)
Azimuth
Elevation
Range (km)
Doppler Factor

Next 0 passes for location: London (51.5072 / 0.1276)

Sorry there are no passes over London.